Vertical_Velocity
-1 -4 -1 1 2 2 -1 -0 -2 -2 4 3 0 -5 2 -3 -3 -0 2 -4 -4 -3 -0 -1 -6 -1 3 1 3 3 -3 -0 -2 -1 -1 2 -1 2 2 -2 -2 -2 -3 -4 3
-1 1 -1 -5 -0 1 2 2 -1 -3 -4 4 2 -0 -5 1 1 -1 0 0 1 -1 0 -0 0 1 0 -0 1 -4 -1 -2 -0 1 -0 0 -1 -1 -1 2 2 -1 4 4 3
0 1 0 0 -3 -3 0 0 3 -2 -4 -2 4 6 -1 -2 -0 -5 -1 1 2 2 1 -2 6 3 3 5 1 -0 -3 -1 1 0 -0 0 0 0 -1 0 -4 -11 -4 1 2
-2 -1 -5 -1 1 1 -4 -1 -1 3 -5 -3 2 5 4 -1 -1 -2 -3 1 0 -1 -3 0 1 3 1 0 -2 -0 -0 1 2 -0 -2 -0 2 0 -1 1 -3 3 -1 -3 -1
-2 -5 3 -3 -2 -0 2 -2 -2 -0 5 -8 -2 3 6 3 -3 -0 -2 1 -1 -2 -4 2 0 0 -1 -1 2 -0 -1 1 1 -2 -2 0 -0 -1 -1 10 -8 4 2 2 2
-0 -3 -1 -3 -3 0 1 2 -0 -2 1 5 -10 2 4 2 -0 -4 1 1 -2 -4 -3 2 4 3 0 0 -3 0 0 -0 2 -1 -2 -0 -2 2 -6 12 5 -1 1 3 4
-0 1 0 -4 -3 -0 -1 -0 3 2 -3 3 2 -5 1 -11 0 2 -3 -1 -0 -3 1 3 -1 0 3 0 2 1 -4 -2 0 -0 -1 0 -2 -2 -10 7 1 1 -1 5 4
-3 -1 -1 -3 -2 -2 -2 2 2 -0 0 1 5 -1 -10 1 3 3 -1 -3 -0 -0 -4 -4 1 -2 -2 1 -1 -2 -1 -0 -5 1 1 -10 -8 -3 -2 2 2 -1 -2 2 3
-1 -1 -3 0 2 0 0 -3 0 5 0 -2 2 6 -9 6 2 7 -1 -5 -2 -1 -3 -1 1 0 1 -2 -2 -0 -2 1 -1 -1 -1 -4 -3 -3 4 2 1 1 -1 2 0
-1 -2 -2 -4 -3 -3 -2 -3 -0 4 2 2 2 9 6 -10 3 -2 7 4 -4 -0 -1 1 1 -1 -0 -2 -6 -2 0 -0 -2 -4 2 1 -3 -3 2 1 -3 -1 2 1 -0
3 2 1 -1 0 -0 -4 -8 7 3 0 -12 -3 -2 2 -3 6 3 2 1 6 4 -1 -1 -4 -2 -5 -3 -1 -1 0 0 1 0 -3 -2 -1 -3 -4 5 2 -0 2 -2 -1
1 1 6 0 -0 1 -2 -3 7 -2 -7 -6 -4 -1 12 -3 -3 5 3 -2 1 -2 1 -2 -2 -5 -1 1 -1 -0 -0 -1 0 0 -1 -0 -5 -3 -0 -5 -8 -4 0 2 6
2 3 -3 0 2 -3 0 1 -1 6 1 -10 -14 -4 -5 3 -4 -8 2 -1 -2 2 -0 -4 -5 0 -1 1 -0 0 -1 -0 -2 -0 -1 -1 -6 -0 2 1 5 2 2 7 -3
0 2 0 20 4 -0 -2 1 8 -1 -2 -14 2 -8 15 5 -3 1 0 -9 4 -7 -1 -4 -1 -2 1 -1 -3 0 -0 -1 -0 -3 -4 -6 -8 -2 0 2 0 1 -1 1 1
1 -1 2 15 11 -6 1 0 24 -21 3 -16 6 11 4 -10 -3 11 3 4 -2 -2 -7 -10 0 1 0 -3 -2 -4 -1 -1 -0 -1 -2 -3 -5 -12 -1 1 0 0 2 5 3
2 -1 1 2 31 -6 11 1 4 5 -13 2 -1 0 3 4 2 4 2 -0 -1 -0 -1 -1 1 -2 -2 1 -1 -1 -2 -2 -1 -2 -5 -4 -6 -7 -3 -6 1 1 4 1 1
6 1 4 16 -0 1 10 2 0 3 -10 -1 -3 1 -1 1 3 -1 0 2 -3 -5 0 1 0 1 -4 -4 -1 -1 -4 -4 -7 -6 -8 -0 -2 -12 -3 -1 -5 -2 1 2 -0
-1 12 -2 4 18 4 6 -2 7 -6 -3 -0 -1 3 -3 -3 0 2 2 1 -1 1 -1 -4 -1 -2 -1 -5 -9 -2 -6 -6 -5 -3 -3 -1 -4 -12 0 0 1 2 -2 1 1
11 -3 -10 11 24 7 3 5 -13 -2 -5 1 4 1 1 2 -5 -0 -1 -2 -4 -3 -8 -3 1 0 -2 0 -9 -2 -1 -5 -4 -1 -5 -4 -3 -6 -1 0 3 2 3 0 -1
5 -7 -13 2 3 23 5 -6 -2 -1 1 -2 -1 -4 -1 -1 3 2 0 -8 -2 -4 -2 -0 -6 -1 1 -2 1 -5 -5 -11 -6 -5 -1 -3 -0 -4 0 0 1 2 0 1 3
6 8 -18 0 22 13 -4 -5 -0 -5 3 -4 -0 1 -3 -3 -3 -0 -5 -4 1 2 -2 -2 -13 -1 -4 -1 -4 -1 1 -3 -8 -4 -5 -2 -7 -3 -4 -3 -2 -0 -1 -2 -3
8 5 -6 7 11 -0 -0 -4 -0 -0 4 0 4 1 -1 -1 -0 0 -3 -0 1 -3 -1 0 -5 -2 -6 -0 -1 -1 -3 -3 -8 -7 -1 -4 -13 -0 -1 -2 -2 -2 -3 -3 -2
0 0 4 27 1 1 1 -1 0 2 -0 1 -0 1 -0 -1 -8 -2 0 -1 1 -2 -5 -6 -3 -3 -11 -13 -5 0 0 -1 -1 -3 -2 -6 -11 -0 1 1 2 -2 -1 -0 1
5 0 4 8 5 -2 0 -1 1 -1 -0 0 -4 0 -1 -1 -1 -1 1 1 0 -0 0 -4 -1 -8 -11 -13 -6 0 1 0 -5 -2 -2 -5 -1 -1 -0 -0 1 2 2 3 5
0 -3 -5 -0 -0 1 1 -0 1 1 1 2 1 -2 -0 1 0 0 0 1 -1 1 -0 -6 -3 -2 1 -0 -1 -2 -1 0 -1 -3 -7 -6 -1 -4 -3 -3 -5 -4 1 2 -1
1 -3 1 0 1 4 0 -5 -3 1 -6 1 2 -2 1 -0 -1 -2 -4 -2 -7 2 -1 -2 -3 -1 1 1 -0 -0 0 0 -0 -0 1 1 -3 -2 -1 4 2 -1 1 1 2
12 4 -10 0 0 1 -4 -2 -6 -0 -3 -2 -6 -3 4 -11 -1 1 -2 -3 -7 -7 -0 -3 -3 -2 -0 -0 -1 -4 -9 -2 -1 0 -7 -4 -11 -0 2 1 -1 1 0 -0 0
Height
1494 1492 1490 1488 1485 1483 1480 1476 1472 1468 1466 1464 1463 1464 1464 1465 1466 1467 1468 1467 1466 1468 1470 1472 1472 1475 1476 1477 1479 1480 1488 1490 1481 1479 1477 1475 1475 1477 1480 1481 1484 1487 1489 1493 1500
1493 1490 1488 1487 1485 1482 1479 1476 1472 1468 1465 1464 1463 1463 1465 1466 1466 1466 1466 1465 1466 1467 1469 1470 1472 1474 1475 1476 1477 1479 1488 1481 1476 1477 1478 1475 1476 1476 1481 1483 1489 1489 1492 1496 1499
1491 1488 1487 1485 1483 1481 1478 1475 1472 1469 1465 1463 1463 1464 1464 1465 1464 1463 1464 1464 1464 1464 1466 1467 1471 1472 1474 1474 1475 1477 1482 1474 1477 1476 1477 1476 1477 1477 1478 1483 1483 1486 1490 1495 1498
1488 1486 1484 1482 1481 1479 1477 1474 1471 1468 1465 1463 1463 1464 1464 1463 1465 1461 1462 1463 1463 1463 1465 1466 1468 1470 1471 1472 1472 1475 1473 1474 1475 1476 1477 1478 1477 1477 1478 1481 1480 1482 1485 1491 1496
1485 1484 1481 1480 1478 1477 1475 1473 1470 1467 1466 1463 1464 1464 1464 1462 1459 1459 1460 1461 1462 1463 1464 1466 1468 1469 1469 1468 1470 1471 1471 1472 1473 1474 1476 1477 1477 1478 1478 1480 1480 1483 1487 1490 1494
1482 1480 1478 1477 1476 1474 1473 1471 1469 1466 1465 1463 1463 1464 1463 1461 1455 1457 1458 1458 1459 1462 1463 1465 1467 1467 1467 1466 1468 1470 1471 1471 1471 1473 1475 1477 1477 1477 1476 1479 1479 1483 1487 1489 1491
1479 1477 1475 1473 1472 1471 1470 1469 1467 1465 1464 1464 1462 1463 1462 1458 1453 1454 1455 1456 1458 1460 1462 1464 1464 1465 1465 1466 1469 1469 1473 1472 1471 1472 1475 1475 1478 1473 1473 1477 1479 1482 1486 1488 1489
1476 1474 1471 1470 1470 1468 1466 1466 1464 1463 1462 1462 1462 1459 1458 1453 1453 1452 1452 1455 1457 1459 1461 1463 1464 1464 1465 1468 1468 1471 1474 1478 1466 1470 1475 1477 1481 1466 1469 1473 1476 1479 1483 1486 1488
1471 1470 1469 1468 1466 1465 1463 1462 1460 1460 1460 1460 1461 1459 1455 1452 1450 1450 1449 1454 1457 1459 1461 1462 1464 1464 1466 1471 1477 1474 1482 1477 1469 1467 1471 1476 1477 1465 1465 1470 1473 1476 1479 1483 1486
1467 1466 1465 1465 1463 1462 1461 1458 1457 1458 1457 1458 1459 1462 1450 1448 1447 1448 1450 1452 1456 1459 1462 1463 1463 1466 1467 1474 1484 1471 1474 1467 1470 1467 1469 1475 1474 1468 1468 1468 1469 1473 1475 1479 1481
1462 1462 1461 1461 1460 1459 1458 1456 1457 1456 1453 1449 1447 1446 1441 1444 1448 1447 1449 1451 1454 1457 1461 1461 1466 1468 1462 1461 1459 1459 1462 1465 1466 1462 1466 1470 1468 1467 1465 1466 1466 1468 1471 1474 1476
1456 1456 1456 1456 1455 1454 1454 1453 1452 1452 1446 1443 1442 1446 1442 1440 1446 1447 1448 1449 1452 1455 1456 1462 1463 1454 1454 1455 1458 1458 1462 1463 1466 1464 1467 1467 1465 1459 1457 1458 1460 1462 1465 1469 1472
1449 1449 1450 1451 1450 1449 1450 1450 1449 1448 1445 1432 1432 1432 1436 1438 1438 1440 1443 1444 1446 1451 1452 1458 1449 1447 1450 1454 1457 1459 1464 1462 1464 1466 1465 1466 1464 1453 1450 1452 1456 1459 1462 1465 1468
1443 1443 1444 1446 1447 1445 1444 1445 1446 1447 1452 1428 1421 1419 1427 1432 1433 1434 1436 1440 1441 1445 1447 1449 1445 1447 1451 1454 1455 1462 1460 1461 1464 1472 1477 1467 1483 1456 1453 1455 1456 1458 1460 1462 1466
1435 1436 1438 1439 1439 1441 1441 1442 1445 1448 1454 1415 1415 1416 1419 1426 1423 1428 1433 1435 1438 1436 1441 1445 1445 1448 1451 1450 1451 1460 1460 1463 1466 1473 1475 1471 1487 1462 1457 1456 1457 1457 1459 1461 1466
1429 1428 1431 1432 1430 1436 1436 1439 1443 1452 1441 1412 1411 1414 1419 1424 1422 1425 1430 1434 1436 1436 1438 1443 1443 1445 1448 1453 1452 1459 1464 1468 1471 1482 1510 1473 1474 1462 1460 1454 1455 1456 1459 1462 1466
1421 1421 1423 1424 1424 1430 1432 1435 1448 1436 1412 1408 1411 1410 1418 1420 1422 1422 1427 1432 1436 1448 1446 1444 1444 1446 1447 1456 1457 1459 1472 1503 1495 1509 1498 1462 1470 1454 1445 1443 1445 1451 1456 1460 1464
1411 1414 1413 1415 1417 1423 1426 1434 1436 1423 1409 1400 1402 1407 1415 1415 1419 1421 1426 1432 1429 1429 1446 1455 1460 1446 1446 1449 1456 1462 1468 1478 1466 1485 1468 1463 1468 1448 1441 1439 1441 1447 1453 1458 1463
1405 1405 1405 1408 1410 1415 1422 1422 1409 1416 1399 1399 1403 1410 1415 1411 1415 1417 1423 1424 1421 1422 1431 1447 1445 1443 1445 1446 1449 1456 1464 1459 1470 1467 1490 1468 1452 1447 1443 1443 1444 1448 1452 1456 1461
1397 1398 1394 1400 1404 1405 1410 1404 1402 1399 1398 1404 1398 1399 1407 1404 1410 1413 1416 1405 1407 1408 1413 1423 1455 1444 1447 1446 1449 1450 1454 1470 1490 1496 1478 1457 1445 1448 1448 1446 1447 1449 1451 1455 1459
1392 1391 1386 1392 1398 1394 1388 1394 1391 1392 1395 1402 1398 1394 1394 1397 1402 1407 1407 1397 1398 1405 1409 1418 1440 1452 1449 1451 1451 1457 1457 1464 1472 1479 1476 1476 1451 1439 1442 1444 1446 1449 1450 1453 1457
1385 1381 1381 1385 1392 1383 1387 1386 1385 1387 1392 1398 1395 1392 1386 1388 1397 1401 1402 1398 1395 1400 1410 1416 1442 1464 1451 1446 1445 1446 1455 1460 1471 1483 1495 1486 1458 1437 1436 1438 1441 1444 1447 1450 1453
1376 1374 1379 1381 1379 1379 1384 1384 1386 1386 1391 1395 1393 1389 1383 1383 1398 1394 1396 1398 1396 1400 1408 1413 1439 1468 1458 1454 1449 1447 1447 1459 1466 1474 1482 1476 1453 1437 1437 1437 1438 1440 1443 1446 1449
1368 1370 1375 1377 1374 1375 1380 1382 1383 1386 1387 1387 1389 1390 1388 1384 1384 1393 1399 1400 1400 1402 1405 1408 1422 1431 1433 1439 1448 1457 1456 1448 1454 1475 1462 1457 1442 1439 1439 1439 1439 1440 1441 1443 1446
1364 1364 1364 1370 1371 1375 1378 1378 1381 1381 1383 1387 1388 1388 1392 1393 1386 1393 1398 1402 1404 1405 1408 1414 1428 1427 1423 1428 1435 1445 1453 1452 1448 1448 1447 1434 1432 1433 1434 1436 1435 1436 1439 1441 1444
1357 1361 1362 1366 1364 1371 1376 1369 1370 1373 1377 1378 1379 1380 1385 1394 1388 1390 1396 1400 1401 1407 1413 1417 1431 1419 1421 1427 1427 1430 1435 1441 1440 1439 1439 1437 1436 1426 1429 1430 1433 1435 1437 1439 1441
1353 1357 1361 1362 1364 1368 1368 1369 1367 1372 1374 1371 1375 1380 1386 1385 1390 1385 1383 1384 1388 1398 1415 1418 1426 1436 1441 1429 1431 1435 1420 1427 1428 1428 1427 1439 1419 1422 1426 1428 1429 1432 1433 1435 1437